{"data":{"norad_id":81311,"epoch":"2026-05-20T03:29:18.495744Z","epoch_age_seconds":497789,"freshness":"STALE","line1":"1 81311U          26140.14535296  .00000252  00000+0  61926-4 0  9998","line2":"2 81311  98.7074 209.6987 0130817   0.8287  28.9911 14.56782336662657","mean_motion":14.56782336,"eccentricity":0.0130817,"inclination_deg":98.7074,"raan_deg":209.6987,"arg_perigee_deg":0.8287,"mean_anomaly_deg":28.9911,"bstar":6.1926e-5,"rev_number":66265,"period_min":98.847986031593,"perigee_km":610.94171985715,"apogee_km":796.22358379575,"semimajor_km":7081.7196518264,"source":"CELESTRAK","updated_at":"2026-05-25T13:38:09.448499Z"}}